sat.trackr.live / text

‹ back to catalog

STARLINK-1451

NORAD 45668 · 2020-035M

PAYLOAD ACTIVE UNKNOWN

§ Identity

Operator
Country
US
Launch date
2020-06-04
Launch site
AFETR
Launch vehicle
Mass (kg)
RCS (m²)

Purposes: comms

External: N2YO · Heavens-Above · Gunter

§ Orbital elements

Epoch: 2026-05-25T02:19:02.658720Z

Period
95.15 min
Inclination
53.0519°
Eccentricity
0.0002966
Mean motion
15.13469794 rev/d
Perigee alt
523.6 km
Apogee alt
527.7 km
Semi-major
6,903.8 km
B*
1.1605e-3
RAAN
80.0957°
Arg perigee
71.5120°
Mean anomaly
288.6194°
Rev number
33,030

§ Raw data

STARLINK-14511 45668U 20035M   26145.09655855  .00020760  00000+0  11605-2 0  99992 45668  53.0519  80.0957 0002966  71.5120 288.6194 15.13469794330308

JSON: /api/v1/satellites/45668 · /tle

For live sub-satellite position, see the globe view (requires WebGL).

§ Visibility from observer

Set your observer location to see the next 7 days of passes ≥ 10°. The values pass through the URL so the page stays shareable.

No JS? Fill the form by hand. The geolocation button needs JavaScript.